GJT873 VVCR-VVTS

Flight info

Callsign GJT873
Flight time 0h 34m
Altitude 28000
Route LKH1A LKH W15 VETOM DALAP2H
Aircraft B738/M-SDE2E3FGHIRWXY/LB1

Departure

Time 2026-04-21 15:21
Airport Cam Ranh International Airport / Cam Ranh Air Base (VVCR)

Arrival

Time 2026-04-21 15:55
Airport Tan Son Nhat International Airport (VVTS)
Time Latitude Longitude Altitude Speed Heading
2026-04-21 14:57 12.01020 109.21755 46 ft 0 kts 340°
2026-04-21 15:11 12.01003 109.21764 46 ft 4 kts 308°
2026-04-21 15:11 12.00996 109.21787 46 ft 4 kts 271°
2026-04-21 15:11 12.00991 109.21813 45 ft 4 kts 286°
2026-04-21 15:11 12.00988 109.21839 42 ft 4 kts 256°
2026-04-21 15:12 12.01000 109.21861 45 ft 4 kts 210°
2026-04-21 15:12 12.01019 109.21869 47 ft 4 kts 195°
2026-04-21 15:12 12.01044 109.21875 47 ft 2 kts 198°
2026-04-21 15:12 12.01045 109.21876 47 ft 1 kts 199°
2026-04-21 15:14 12.01028 109.21870 47 ft 7 kts 198°
2026-04-21 15:15 12.00956 109.21846 46 ft 10 kts 198°
2026-04-21 15:15 12.00891 109.21839 46 ft 11 kts 163°
2026-04-21 15:15 12.00806 109.21859 46 ft 15 kts 187°
2026-04-21 15:15 12.00705 109.21827 45 ft 15 kts 199°
2026-04-21 15:16 12.00606 109.21794 44 ft 15 kts 198°
2026-04-21 15:16 12.00497 109.21756 40 ft 17 kts 199°
2026-04-21 15:16 12.00382 109.21716 42 ft 18 kts 199°
2026-04-21 15:16 12.00254 109.21670 41 ft 20 kts 199°
2026-04-21 15:17 12.00160 109.21641 41 ft 12 kts 191°
2026-04-21 15:17 12.00101 109.21691 40 ft 14 kts 111°
2026-04-21 15:17 12.00064 109.21770 41 ft 11 kts 155°
2026-04-21 15:17 11.99965 109.21748 40 ft 21 kts 198°
2026-04-21 15:18 11.99820 109.21700 38 ft 23 kts 198°
2026-04-21 15:18 11.99664 109.21644 37 ft 26 kts 199°
2026-04-21 15:18 11.99489 109.21583 35 ft 28 kts 199°
2026-04-21 15:18 11.99294 109.21515 33 ft 31 kts 199°
2026-04-21 15:19 11.99086 109.21444 31 ft 32 kts 199°
2026-04-21 15:19 11.98883 109.21373 30 ft 30 kts 199°
2026-04-21 15:19 11.98691 109.21305 28 ft 26 kts 199°
2026-04-21 15:19 11.98576 109.21313 27 ft 16 kts 111°
2026-04-21 15:20 11.98543 109.21431 26 ft 19 kts 97°
2026-04-21 15:20 11.98669 109.21527 27 ft 45 kts 19°
2026-04-21 15:20 11.99187 109.21712 30 ft 111 kts 19°
2026-04-21 15:20 12.00103 109.22016 51 ft 162 kts 19°
2026-04-21 15:21 12.01215 109.22433 531 ft 170 kts 20°
2026-04-21 15:21 12.02324 109.22877 1160 ft 174 kts 21°
2026-04-21 15:21 12.03467 109.23270 1820 ft 175 kts 20°
2026-04-21 15:21 12.04683 109.23675 2100 ft 200 kts 20°
2026-04-21 15:22 12.06088 109.24148 2339 ft 224 kts 19°
2026-04-21 15:22 12.07628 109.24671 2532 ft 242 kts 19°
2026-04-21 15:22 12.09310 109.25057 2790 ft 258 kts 359°
2026-04-21 15:22 12.11119 109.24685 3083 ft 272 kts 345°
2026-04-21 15:23 12.12973 109.24188 3726 ft 276 kts 346°
2026-04-21 15:23 12.14832 109.23711 4546 ft 275 kts 347°
2026-04-21 15:23 12.16682 109.23228 5307 ft 275 kts 341°
2026-04-21 15:23 12.18241 109.22142 6064 ft 275 kts 308°
2026-04-21 15:24 12.18970 109.20381 6768 ft 278 kts 279°
2026-04-21 15:24 12.18866 109.18392 7375 ft 286 kts 257°
2026-04-21 15:24 12.18133 109.16489 8026 ft 291 kts 244°
2026-04-21 15:24 12.17191 109.14645 8712 ft 295 kts 242°
2026-04-21 15:25 12.16193 109.12792 9409 ft 300 kts 241°
2026-04-21 15:25 12.15176 109.10917 10084 ft 304 kts 241°
2026-04-21 15:25 12.14128 109.08973 10396 ft 323 kts 241°
2026-04-21 15:25 12.13014 109.06894 10610 ft 343 kts 242°
2026-04-21 15:26 12.11861 109.04727 11112 ft 350 kts 242°
2026-04-21 15:26 12.10699 109.02534 11796 ft 352 kts 242°
2026-04-21 15:26 12.09534 109.00325 12446 ft 355 kts 242°
2026-04-21 15:26 12.08363 108.98098 13190 ft 356 kts 242°
2026-04-21 15:27 12.07187 108.95859 13877 ft 359 kts 242°
2026-04-21 15:27 12.05999 108.93595 14471 ft 363 kts 242°
2026-04-21 15:27 12.04816 108.91342 15064 ft 367 kts 242°
2026-04-21 15:27 12.03607 108.89039 15697 ft 369 kts 242°
2026-04-21 15:28 12.02388 108.86718 16330 ft 372 kts 242°
2026-04-21 15:28 12.01160 108.84379 16945 ft 375 kts 242°
2026-04-21 15:28 11.99920 108.82018 17549 ft 379 kts 242°
2026-04-21 15:28 11.98669 108.79639 18151 ft 382 kts 242°
2026-04-21 15:29 11.97407 108.77237 18634 ft 386 kts 242°
2026-04-21 15:29 11.96129 108.74806 19078 ft 391 kts 242°
2026-04-21 15:29 11.94839 108.72354 19613 ft 391 kts 242°
2026-04-21 15:29 11.93550 108.69904 19947 ft 396 kts 242°
2026-04-21 15:30 11.92247 108.67440 20328 ft 401 kts 242°
2026-04-21 15:30 11.90920 108.64931 20874 ft 402 kts 242°
2026-04-21 15:30 11.89586 108.62406 21311 ft 407 kts 242°
2026-04-21 15:30 11.88239 108.59851 21741 ft 411 kts 242°
2026-04-21 15:31 11.86881 108.57272 22221 ft 414 kts 242°
2026-04-21 15:31 11.85512 108.54672 22672 ft 418 kts 242°
2026-04-21 15:31 11.84131 108.52050 23091 ft 421 kts 242°
2026-04-21 15:31 11.82737 108.49403 23513 ft 425 kts 242°
2026-04-21 15:32 11.81328 108.46728 23748 ft 433 kts 242°
2026-04-21 15:32 11.79882 108.43986 23800 ft 444 kts 242°
2026-04-21 15:32 11.78423 108.41223 23904 ft 452 kts 242°
2026-04-21 15:32 11.76927 108.38385 24188 ft 455 kts 242°
2026-04-21 15:33 11.75420 108.35548 24547 ft 455 kts 241°
2026-04-21 15:33 11.73714 108.32822 24865 ft 457 kts 236°
2026-04-21 15:33 11.71867 108.30179 25150 ft 459 kts 234°
2026-04-21 15:33 11.69975 108.27544 25429 ft 462 kts 234°
2026-04-21 15:34 11.68076 108.24889 25710 ft 464 kts 234°
2026-04-21 15:34 11.66175 108.22195 25745 ft 472 kts 235°
2026-04-21 15:34 11.64254 108.19444 25812 ft 479 kts 235°
2026-04-21 15:34 11.62321 108.16662 25983 ft 482 kts 235°
2026-04-21 15:35 11.60405 108.13901 26076 ft 484 kts 235°
2026-04-21 15:35 11.58462 108.11104 26011 ft 484 kts 235°
2026-04-21 15:35 11.56528 108.08326 25982 ft 473 kts 235°
2026-04-21 15:35 11.54660 108.05645 25886 ft 456 kts 235°
2026-04-21 15:36 11.52850 108.03046 25526 ft 447 kts 235°
2026-04-21 15:36 11.51039 108.00447 24668 ft 452 kts 235°
2026-04-21 15:36 11.49211 107.97829 23975 ft 453 kts 235°
2026-04-21 15:36 11.47388 107.95219 23440 ft 449 kts 235°
2026-04-21 15:37 11.45587 107.92643 22893 ft 443 kts 235°
2026-04-21 15:37 11.43835 107.90136 22378 ft 437 kts 235°
2026-04-21 15:37 11.42069 107.87607 21519 ft 439 kts 235°
2026-04-21 15:37 11.40295 107.85070 20741 ft 440 kts 234°
2026-04-21 15:38 11.38522 107.82536 20163 ft 436 kts 234°
2026-04-21 15:38 11.36779 107.80044 19683 ft 429 kts 234°
2026-04-21 15:38 11.35053 107.77578 19034 ft 427 kts 234°
2026-04-21 15:38 11.33333 107.75119 18378 ft 425 kts 234°
2026-04-21 15:39 11.31624 107.72679 17772 ft 420 kts 234°
2026-04-21 15:39 11.29940 107.70274 17244 ft 414 kts 234°
2026-04-21 15:39 11.28201 107.67955 16758 ft 410 kts 229°
2026-04-21 15:39 11.26323 107.65852 16307 ft 404 kts 227°
2026-04-21 15:40 11.24383 107.63787 15855 ft 404 kts 226°
2026-04-21 15:40 11.22423 107.61719 15396 ft 407 kts 226°
2026-04-21 15:40 11.20459 107.59632 14899 ft 408 kts 226°
2026-04-21 15:40 11.18521 107.57550 14439 ft 403 kts 227°
2026-04-21 15:41 11.16604 107.55475 13971 ft 400 kts 227°
2026-04-21 15:41 11.14731 107.53438 13582 ft 389 kts 227°
2026-04-21 15:41 11.12891 107.51431 13128 ft 386 kts 227°
2026-04-21 15:41 11.11069 107.49444 12680 ft 381 kts 227°
2026-04-21 15:42 11.09271 107.47484 12232 ft 376 kts 227°
2026-04-21 15:42 11.07495 107.45550 11797 ft 371 kts 227°
2026-04-21 15:42 11.05746 107.43646 11431 ft 365 kts 227°
2026-04-21 15:42 11.04035 107.41782 11287 ft 356 kts 227°
2026-04-21 15:43 11.02357 107.39948 11123 ft 352 kts 228°
2026-04-21 15:43 11.01053 107.37911 10919 ft 347 kts 249°
2026-04-21 15:43 11.00366 107.35612 10628 ft 332 kts 255°
2026-04-21 15:43 10.99756 107.33399 10331 ft 319 kts 254°
2026-04-21 15:44 10.99141 107.31248 10059 ft 316 kts 254°
2026-04-21 15:44 10.98514 107.29103 9772 ft 316 kts 253°
2026-04-21 15:44 10.97874 107.26968 9473 ft 314 kts 250°
2026-04-21 15:44 10.96759 107.25090 9163 ft 311 kts 224°
2026-04-21 15:45 10.94990 107.23922 9073 ft 302 kts 200°
2026-04-21 15:45 10.92961 107.23484 9032 ft 296 kts 179°
2026-04-21 15:45 10.90926 107.23670 9050 ft 294 kts 171°
2026-04-21 15:45 10.88916 107.23965 9042 ft 296 kts 171°
2026-04-21 15:46 10.86879 107.24267 9036 ft 296 kts 173°
2026-04-21 15:46 10.84851 107.24066 9025 ft 295 kts 201°
2026-04-21 15:46 10.83143 107.22938 9047 ft 298 kts 226°
2026-04-21 15:46 10.82035 107.21190 8956 ft 294 kts 251°
2026-04-21 15:47 10.81711 107.19167 8770 ft 284 kts 274°
2026-04-21 15:47 10.81950 107.17215 8401 ft 278 kts 281°
2026-04-21 15:47 10.82323 107.15278 7857 ft 280 kts 283°
2026-04-21 15:47 10.82719 107.13337 7487 ft 280 kts 283°
2026-04-21 15:48 10.83107 107.11405 7260 ft 276 kts 283°
2026-04-21 15:48 10.83479 107.09511 6919 ft 272 kts 283°
2026-04-21 15:48 10.83839 107.07645 6500 ft 272 kts 283°
2026-04-21 15:48 10.84196 107.05763 6112 ft 270 kts 283°
2026-04-21 15:49 10.84548 107.03891 5725 ft 268 kts 282°
2026-04-21 15:49 10.84893 107.02042 5381 ft 264 kts 282°
2026-04-21 15:49 10.85233 107.00214 4997 ft 263 kts 281°
2026-04-21 15:49 10.85570 106.98395 4640 ft 261 kts 281°
2026-04-21 15:50 10.85905 106.96586 4202 ft 261 kts 281°
2026-04-21 15:50 10.86243 106.94765 4085 ft 260 kts 281°
2026-04-21 15:50 10.86576 106.92975 4031 ft 255 kts 281°
2026-04-21 15:50 10.86898 106.91244 4028 ft 251 kts 281°
2026-04-21 15:51 10.87208 106.89488 4016 ft 247 kts 279°
2026-04-21 15:51 10.87476 106.87828 4001 ft 233 kts 279°
2026-04-21 15:51 10.87730 106.86247 4015 ft 222 kts 279°
2026-04-21 15:51 10.87977 106.84711 4016 ft 221 kts 279°
2026-04-21 15:52 10.88230 106.83155 4036 ft 225 kts 279°
2026-04-21 15:52 10.88325 106.81543 3980 ft 234 kts 262°
2026-04-21 15:52 10.87928 106.79901 3669 ft 241 kts 248°
2026-04-21 15:52 10.87259 106.78351 3341 ft 237 kts 243°
2026-04-21 15:53 10.86545 106.76838 2717 ft 239 kts 240°
2026-04-21 15:53 10.85842 106.75328 2228 ft 232 kts 244°
2026-04-21 15:53 10.85308 106.73842 1779 ft 222 kts 247°
2026-04-21 15:53 10.84791 106.72387 1285 ft 214 kts 245°
2026-04-21 15:54 10.84257 106.71041 976 ft 197 kts 246°
2026-04-21 15:54 10.83794 106.69801 768 ft 176 kts 247°
2026-04-21 15:54 10.83387 106.68697 568 ft 158 kts 247°
2026-04-21 15:54 10.82991 106.67656 330 ft 156 kts 248°
2026-04-21 15:55 10.82608 106.66638 120 ft 149 kts 248°
2026-04-21 15:55 10.82250 106.65683 39 ft 132 kts 249°
2026-04-21 15:55 10.81970 106.64960 37 ft 88 kts 249°
2026-04-21 15:55 10.81807 106.64524 41 ft 44 kts 246°
2026-04-21 15:56 10.81715 106.64403 41 ft 0 kts 231°
2026-04-21 15:56 10.81661 106.64342 40 ft 19 kts 223°
2026-04-21 15:56 10.81579 106.64291 40 ft 5 kts 190°
2026-04-21 15:56 10.81571 106.64290 39 ft 0 kts 186°
2026-04-21 15:57 10.81570 106.64290 39 ft 1 kts 186°
2026-04-21 15:57 10.81537 106.64292 37 ft 11 kts 169°
2026-04-21 15:57 10.81456 106.64323 36 ft 13 kts 160°
2026-04-21 15:57 10.81377 106.64355 36 ft 11 kts 160°
2026-04-21 15:58 10.81312 106.64379 36 ft 9 kts 160°
2026-04-21 15:58 10.81262 106.64404 36 ft 6 kts 146°
2026-04-21 15:58 10.81224 106.64475 37 ft 14 kts 103°
2026-04-21 15:58 10.81213 106.64563 36 ft 12 kts 95°
2026-04-21 15:59 10.81213 106.64644 38 ft 11 kts 79°
2026-04-21 15:59 10.81244 106.64733 38 ft 17 kts 68°
2026-04-21 15:59 10.81290 106.64851 38 ft 18 kts 68°
2026-04-21 15:59 10.81334 106.64964 36 ft 17 kts 68°
2026-04-21 16:00 10.81375 106.65019 38 ft 10 kts 21°
2026-04-21 16:00 10.81527 106.65017 39 ft 26 kts 22°